Weather History for York, NE

Change the Weather History Date:

Saturday, July 13, 2013

  Actual Average Record
Temperature  
Mean Temperature 85 °F -  
Max Temperature 95 °F 90 °F 109 °F (1954)
Min Temperature 75 °F 67 °F 49 °F (1950)
Cooling Degree Days 20    
Growing Degree Days 35 (Base 50)    
Moisture  
Dew Point 71 °F    
Average Humidity 66    
Maximum Humidity 83    
Minimum Humidity 44    
Precipitation  
Precipitation 0.00 in - - ()
Sea Level Pressure  
Sea Level Pressure 29.93 in    
Wind  
Wind Speed 13 mph (SSE)    
Max Wind Speed 18 mph    
Max Gust Speed 24 mph    
Visibility 10 miles    
Events      
Averages and records for this station are not official NWS values.
T = Trace of Precipitation, MM = Missing Value Source: NWS Daily Summary

Daily Weather History Graph

Daily Weather History Graph

Search for Another Location

Airport:

Trip Planner

Search our weather history database for the weather conditions in past years. The results will help you decide how hot, cold, wet, or windy it might be!

Date:

Astronomy

Jul. 13, 2013 Rise Set
Actual Time 6:10 AM CDT 9:01 PM CDT
Civil Twilight 5:37 AM CDT 9:34 PM CDT
Nautical Twilight 4:56 AM CDT 10:15 PM CDT
Astronomical Twilight 4:08 AM CDT 11:02 PM CDT
Moon 11:30 AM CDT (7/13) 11:40 PM CDT (7/13)
Length of Visible Light 15h 56m
Length of Day
14h 51m
Waxing Crescent, 26% of the Moon is Illuminated
Jul 13
Waxing Crescent
Jul 15
First Quarter
Jul 22
Full
Jul 29
Last Quarter
Aug 6
New

Hourly Weather History & Observations

Time (CDT) Temp. Heat Index Dew Point Humidity Pressure Visibility Wind Dir Wind Speed Gust Speed Precip Events Conditions
12:15 AM 82.4 °F 86.3 °F 69.8 °F 66% 29.93 in 10.0 mi SSE 12.7 mph 20.7 mph N/A   Scattered Clouds
12:35 AM 80.6 °F 83.9 °F 69.8 °F 70% 29.93 in 10.0 mi South 13.8 mph 20.7 mph N/A   Partly Cloudy
12:55 AM 80.6 °F 83.9 °F 69.8 °F 70% 29.93 in 10.0 mi SSE 12.7 mph 18.4 mph N/A   Clear
1:15 AM 80.6 °F 83.9 °F 69.8 °F 70% 29.93 in 10.0 mi South 12.7 mph - N/A   Scattered Clouds
1:35 AM 80.6 °F 83.9 °F 69.8 °F 70% 29.94 in 10.0 mi South 11.5 mph - N/A   Scattered Clouds
1:55 AM 80.6 °F 83.9 °F 69.8 °F 70% 29.94 in 10.0 mi South 10.4 mph - N/A   Partly Cloudy
2:15 AM 80.6 °F 83.9 °F 69.8 °F 70% 29.95 in 10.0 mi South 10.4 mph - N/A   Clear
2:35 AM 78.8 °F - 69.8 °F 74% 29.95 in 10.0 mi South 9.2 mph - N/A   Clear
2:55 AM 78.8 °F - 69.8 °F 74% 29.95 in 10.0 mi South 9.2 mph - N/A   Clear
3:15 AM 77.0 °F - 69.8 °F 78% 29.95 in 10.0 mi South 9.2 mph - N/A   Unknown
3:35 AM 77.0 °F - 69.8 °F 78% 29.94 in 10.0 mi South 10.4 mph - N/A   Clear
3:55 AM 77.0 °F - 69.8 °F 78% 29.94 in 10.0 mi South 10.4 mph - N/A   Unknown
4:15 AM 77.0 °F - 69.8 °F 78% 29.94 in 10.0 mi South 8.1 mph - N/A   Clear
4:35 AM 75.2 °F - 69.8 °F 83% 29.94 in 10.0 mi SSE 8.1 mph - N/A   Clear
4:55 AM 75.2 °F - 69.8 °F 83% 29.94 in 10.0 mi SSE 8.1 mph - N/A   Clear
5:15 AM 75.2 °F - 69.8 °F 83% 29.93 in 10.0 mi SSE 9.2 mph - N/A   Clear
5:35 AM 75.2 °F - 69.8 °F 83% 29.93 in 10.0 mi SSE 8.1 mph - N/A   Clear
5:55 AM 75.2 °F - 69.8 °F 83% 29.94 in 10.0 mi SSE 10.4 mph - N/A   Clear
6:15 AM 75.2 °F - 69.8 °F 83% 29.94 in 10.0 mi SSE 11.5 mph 16.1 mph N/A   Clear
6:35 AM 75.2 °F - 69.8 °F 83% 29.94 in 10.0 mi South 13.8 mph - N/A   Clear
6:55 AM 75.2 °F - 69.8 °F 83% 29.94 in 10.0 mi South 12.7 mph - N/A   Clear
7:15 AM 75.2 °F - 69.8 °F 83% 29.94 in 10.0 mi South 12.7 mph - N/A   Clear
7:35 AM 75.2 °F - 69.8 °F 83% 29.94 in 9.0 mi South 13.8 mph - N/A   Clear
7:55 AM 77.0 °F - 69.8 °F 78% 29.94 in 10.0 mi South 11.5 mph - N/A   Clear
8:15 AM 77.0 °F - 69.8 °F 78% 29.95 in 10.0 mi South 10.4 mph - N/A   Clear
8:35 AM 77.0 °F - 69.8 °F 78% 29.95 in 10.0 mi South 11.5 mph - N/A   Clear
8:55 AM 80.6 °F 84.6 °F 71.6 °F 74% 29.95 in 9.0 mi South 11.5 mph - N/A   Clear
9:15 AM 82.4 °F 87.2 °F 71.6 °F 70% 29.95 in 9.0 mi South 11.5 mph - N/A   Clear
9:35 AM 82.4 °F 87.2 °F 71.6 °F 70% 29.96 in 10.0 mi South 15.0 mph 18.4 mph N/A   Clear
9:55 AM 82.4 °F 87.2 °F 71.6 °F 70% 29.96 in 10.0 mi South 13.8 mph 19.6 mph N/A   Clear
10:15 AM 82.4 °F 87.2 °F 71.6 °F 70% 29.96 in 10.0 mi South 13.8 mph - N/A   Clear
10:35 AM 82.4 °F 87.2 °F 71.6 °F 70% 29.96 in 10.0 mi South 13.8 mph - N/A   Clear
10:55 AM 84.2 °F 89.6 °F 71.6 °F 66% 29.96 in 10.0 mi South 11.5 mph 17.3 mph N/A   Clear
11:15 AM 86.0 °F 91.8 °F 71.6 °F 62% 29.95 in 10.0 mi South 13.8 mph 20.7 mph N/A   Clear
11:35 AM 87.8 °F 93.8 °F 71.6 °F 58% 29.95 in 10.0 mi South 15.0 mph - N/A   Clear
11:55 AM 89.6 °F 96.2 °F 71.6 °F 55% 29.95 in 10.0 mi South 16.1 mph 19.6 mph N/A   Clear
12:15 PM 89.6 °F 96.2 °F 71.6 °F 55% 29.95 in 10.0 mi South 16.1 mph - N/A   Clear
12:35 PM 89.6 °F 94.7 °F 69.8 °F 52% 29.94 in 9.0 mi South 16.1 mph - N/A   Clear
12:55 PM 89.6 °F 96.2 °F 71.6 °F 55% 29.94 in 10.0 mi South 12.7 mph 19.6 mph N/A   Clear
1:15 PM 91.4 °F 98.4 °F 71.6 °F 52% 29.93 in 10.0 mi South 12.7 mph 20.7 mph N/A   Clear
1:35 PM 93.2 °F 100.5 °F 71.6 °F 49% 29.93 in 10.0 mi South 13.8 mph - N/A   Clear
1:55 PM 93.2 °F 100.5 °F 71.6 °F 49% 29.93 in 10.0 mi South 17.3 mph 20.7 mph N/A   Clear
2:15 PM 93.2 °F 100.5 °F 71.6 °F 49% 29.93 in 10.0 mi South 16.1 mph 21.9 mph N/A   Clear
2:35 PM 93.2 °F 100.5 °F 71.6 °F 49% 29.92 in 10.0 mi South 16.1 mph 24.2 mph N/A   Clear
2:55 PM 93.2 °F 100.5 °F 71.6 °F 49% 29.92 in 10.0 mi South 17.3 mph - N/A   Clear
3:15 PM 95.0 °F 103.2 °F 71.6 °F 47% 29.91 in 10.0 mi South 17.3 mph 23.0 mph N/A   Clear
3:35 PM 95.0 °F 103.2 °F 71.6 °F 47% 29.91 in 10.0 mi South 17.3 mph 23.0 mph N/A   Clear
3:55 PM 95.0 °F 103.2 °F 71.6 °F 47% 29.91 in 10.0 mi South 13.8 mph - N/A   Clear
4:15 PM 95.0 °F 103.2 °F 71.6 °F 47% 29.91 in 10.0 mi South 16.1 mph 19.6 mph N/A   Clear
4:35 PM 95.0 °F 103.2 °F 71.6 °F 47% 29.91 in 10.0 mi South 15.0 mph 19.6 mph N/A   Clear
4:55 PM 95.0 °F 103.2 °F 71.6 °F 47% 29.90 in 10.0 mi South 12.7 mph 18.4 mph N/A   Clear
5:15 PM 95.0 °F 103.2 °F 71.6 °F 47% 29.90 in 10.0 mi South 15.0 mph 19.6 mph N/A   Clear
5:35 PM 95.0 °F 101.3 °F 69.8 °F 44% 29.90 in 10.0 mi SSE 16.1 mph 23.0 mph N/A   Clear
5:55 PM 95.0 °F 103.2 °F 71.6 °F 47% 29.90 in 10.0 mi SSE 15.0 mph 19.6 mph N/A   Clear
6:15 PM 93.2 °F 100.5 °F 71.6 °F 49% 29.89 in 10.0 mi SSE 15.0 mph 18.4 mph N/A   Clear
6:35 PM 93.2 °F 100.5 °F 71.6 °F 49% 29.89 in 9.0 mi SSE 12.7 mph 20.7 mph N/A   Clear
6:55 PM 91.4 °F 98.4 °F 71.6 °F 52% 29.89 in 10.0 mi SSE 13.8 mph - N/A   Clear
7:15 PM 89.6 °F 96.2 °F 71.6 °F 55% 29.89 in 10.0 mi SSE 13.8 mph 24.2 mph N/A   Clear
7:35 PM 89.6 °F 98.2 °F 73.4 °F 59% 29.90 in 10.0 mi SE 12.7 mph - N/A   Clear
7:55 PM 87.8 °F 95.6 °F 73.4 °F 62% 29.90 in 10.0 mi SSE 18.4 mph 21.9 mph N/A   Clear
8:15 PM 86.0 °F 93.4 °F 73.4 °F 66% 29.90 in 10.0 mi SE 16.1 mph 21.9 mph N/A   Clear
8:35 PM 84.2 °F 89.6 °F 71.6 °F 66% 29.91 in 10.0 mi SE 13.8 mph - N/A   Clear
8:55 PM 84.2 °F 89.6 °F 71.6 °F 66% 29.91 in 10.0 mi SE 13.8 mph 17.3 mph N/A   Clear
9:15 PM 82.4 °F 87.2 °F 71.6 °F 70% 29.91 in 10.0 mi SE 13.8 mph - N/A   Clear
9:35 PM 82.4 °F 87.2 °F 71.6 °F 70% 29.92 in 10.0 mi SE 13.8 mph 20.7 mph N/A   Clear
9:55 PM 80.6 °F 84.6 °F 71.6 °F 74% 29.93 in 10.0 mi SE 12.7 mph - N/A   Clear
10:15 PM 80.6 °F 84.6 °F 71.6 °F 74% 29.93 in 10.0 mi SE 15.0 mph 19.6 mph N/A   Clear
10:35 PM 80.6 °F 83.9 °F 69.8 °F 70% 29.93 in 10.0 mi SSE 16.1 mph 21.9 mph N/A   Clear
10:55 PM 80.6 °F 83.9 °F 69.8 °F 70% 29.93 in 10.0 mi SSE 15.0 mph 21.9 mph N/A   Clear
11:15 PM 80.6 °F 84.6 °F 71.6 °F 74% 29.93 in 10.0 mi SSE 15.0 mph - N/A   Clear
11:35 PM 80.6 °F 84.6 °F 71.6 °F 74% 29.94 in 10.0 mi SSE 13.8 mph - N/A   Clear
11:55 PM 80.6 °F 84.6 °F 71.6 °F 74% 29.95 in 10.0 mi SE 12.7 mph 20.7 mph N/A   Clear